| time (UTC) | temp F | wind direction | speed MPH | gust MPH | rain 1hr in | rain 24hr in | rain mn in | humidity % | barometer mb |
| 20260509123545 | 57 | 264 | 5.0 | 12.0 | 0.00 | 0.04 | 0.01 | 76 | 1002.4 |
| 20260509123046 | 57 | 334 | 5.0 | 9.0 | 0.00 | 0.04 | 0.01 | 77 | 1002.4 |
| 20260509122543 | 57 | 292 | 4.0 | 9.0 | 0.00 | 0.04 | 0.01 | 77 | 1002.5 |
| 20260509122044 | 56 | 310 | 5.0 | 10.0 | 0.00 | 0.04 | 0.01 | 79 | 1002.5 |
| 20260509121541 | 56 | 257 | 4.0 | 10.0 | 0.00 | 0.04 | 0.01 | 80 | 1002.4 |
| 20260509121313 | 56 | 149 | 5.0 | 11.0 | 0.00 | 0.04 | 0.01 | 80 | 1002.3 |
| 20260509120542 | 56 | 225 | 6.0 | 11.0 | 0.00 | 0.04 | 0.01 | 81 | 1002.4 |
| 20260509120040 | 55 | 241 | 6.0 | 11.0 | 0.00 | 0.04 | 0.01 | 82 | 1002.4 |
| 20260509115539 | 55 | 237 | 4.0 | 10.0 | 0.00 | 0.04 | 0.01 | 83 | 1002.3 |
| 20260509115041 | 55 | 302 | 3.0 | 9.0 | 0.00 | 0.04 | 0.01 | 83 | 1002.4 |
| 20260509114808 | 55 | 223 | 4.0 | 9.0 | 0.00 | 0.04 | 0.01 | 83 | 1002.3 |
| 20260509114040 | 55 | 191 | 2.0 | 9.0 | 0.00 | 0.04 | 0.01 | 83 | 1002.2 |
| 20260509113536 | 55 | 212 | 5.0 | 9.0 | 0.00 | 0.04 | 0.01 | 83 | 1002.1 |
| 20260509113037 | 55 | 237 | 5.0 | 10.0 | 0.00 | 0.04 | 0.01 | 84 | 1002.2 |
| 20260509112535 | 55 | 270 | 3.0 | 10.0 | 0.00 | 0.04 | 0.01 | 83 | 1002.2 |
| 20260509112035 | 55 | 272 | 4.0 | 8.0 | 0.00 | 0.04 | 0.01 | 83 | 1002.2 |
| 20260509111535 | 55 | 262 | 2.0 | 11.0 | 0.00 | 0.06 | 0.01 | 83 | 1002.3 |
| 20260509111035 | 55 | 98 | 3.0 | 11.0 | 0.00 | 0.07 | 0.01 | 83 | 1002.1 |
| 20260509110528 | 55 | 180 | 5.0 | 8.0 | 0.00 | 0.07 | 0.01 | 83 | 1001.8 |
| 20260509110248 | 55 | 278 | 5.0 | 8.0 | 0.00 | 0.07 | 0.01 | 83 | 1001.8 |
| 20260509105524 | 55 | 241 | 4.0 | 8.0 | 0.00 | 0.07 | 0.01 | 83 | 1001.9 |
| 20260509105024 | 55 | 215 | 3.0 | 8.0 | 0.00 | 0.07 | 0.01 | 82 | 1001.9 |
| 20260509104523 | 55 | 237 | 4.0 | 10.0 | 0.00 | 0.07 | 0.01 | 82 | 1001.8 |
| 20260509104023 | 55 | 232 | 4.0 | 10.0 | 0.00 | 0.07 | 0.01 | 83 | 1001.8 |
| 20260509103520 | 55 | 229 | 3.0 | 9.0 | 0.00 | 0.07 | 0.01 | 83 | 1001.7 |
| 20260509103020 | 55 | 180 | 5.0 | 9.0 | 0.00 | 0.07 | 0.01 | 83 | 1001.8 |
| 20260509102520 | 55 | 267 | 4.0 | 10.0 | 0.00 | 0.07 | 0.01 | 82 | 1001.8 |
| 20260509102021 | 55 | 206 | 4.0 | 10.0 | 0.00 | 0.07 | 0.01 | 82 | 1001.8 |
| 20260509101516 | 55 | 241 | 6.0 | 10.0 | 0.00 | 0.07 | 0.01 | 82 | 1001.9 |
| 20260509101456 | 55 | 205 | 5.0 | 7.0 | 0.00 | 0.07 | 0.01 | 82 | 1001.9 |
| 20260509100517 | 55 | 195 | 4.0 | 7.0 | 0.00 | 0.07 | 0.01 | 82 | 1002.0 |
| 20260509100015 | 55 | 195 | 3.0 | 7.0 | 0.00 | 0.07 | 0.01 | 82 | 1002.0 |
| 20260509095514 | 55 | 289 | 2.0 | 9.0 | 0.00 | 0.07 | 0.01 | 82 | 1002.1 |
| 20260509095014 | 55 | 223 | 2.0 | 9.0 | 0.00 | 0.07 | 0.01 | 82 | 1002.2 |
| 20260509094514 | 55 | 284 | 4.0 | 8.0 | 0.00 | 0.07 | 0.01 | 82 | 1002.3 |
| 20260509094014 | 55 | 243 | 2.0 | 8.0 | 0.00 | 0.07 | 0.01 | 82 | 1002.5 |
| 20260509093512 | 55 | 258 | 4.0 | 8.0 | 0.00 | 0.07 | 0.01 | 82 | 1002.5 |
| 20260509093010 | 55 | 240 | 2.0 | 9.0 | 0.00 | 0.07 | 0.01 | 82 | 1002.5 |
| 20260509092512 | 55 | 313 | 3.0 | 9.0 | 0.00 | 0.07 | 0.01 | 81 | 1002.5 |
| 20260509092010 | 55 | 241 | 4.0 | 9.0 | 0.00 | 0.07 | 0.01 | 82 | 1002.4 |
| 20260509091511 | 55 | 188 | 4.0 | 8.0 | 0.00 | 0.07 | 0.01 | 81 | 1002.4 |
| 20260509091013 | 55 | 195 | 4.0 | 10.0 | 0.01 | 0.07 | 0.01 | 81 | 1002.5 |
| 20260509090507 | 55 | 248 | 2.0 | 10.0 | 0.01 | 0.07 | 0.01 | 81 | 1002.5 |
| 20260509090006 | 55 | 248 | 3.0 | 8.0 | 0.01 | 0.07 | 0.01 | 81 | 1002.6 |
| 20260509085509 | 56 | 87 | 3.0 | 10.0 | 0.01 | 0.07 | 0.01 | 81 | 1002.6 |
| 20260509085005 | 55 | 236 | 3.0 | 10.0 | 0.01 | 0.07 | 0.01 | 81 | 1002.6 |
| 20260509084504 | 55 | 244 | 4.0 | 7.0 | 0.01 | 0.07 | 0.01 | 81 | 1002.7 |
| 20260509084004 | 55 | 241 | 2.0 | 8.0 | 0.01 | 0.07 | 0.01 | 81 | 1002.7 |
| 20260509083503 | 55 | 254 | 3.0 | 8.0 | 0.01 | 0.07 | 0.01 | 80 | 1002.7 |
| 20260509083238 | 55 | 285 | 3.0 | 8.0 | 0.01 | 0.07 | 0.01 | 80 | 1002.7 |
| 20260509082505 | 56 | 292 | 2.0 | 8.0 | 0.01 | 0.07 | 0.01 | 80 | 1002.6 |
| 20260509082009 | 55 | 248 | 3.0 | 8.0 | 0.01 | 0.07 | 0.01 | 80 | 1002.6 |
| 20260509081459 | 56 | 260 | 2.0 | 8.0 | 0.01 | 0.07 | 0.01 | 79 | 1002.6 |
| 20260509080958 | 56 | 258 | 4.0 | 7.0 | 0.00 | 0.06 | 0.00 | 80 | 1002.6 |
| 20260509080456 | 56 | 168 | 1.0 | 8.0 | 0.00 | 0.06 | 0.00 | 79 | 1002.6 |
| 20260509075957 | 56 | 227 | 1.0 | 8.0 | 0.00 | 0.06 | 0.00 | 79 | 1002.6 |
| 20260509075720 | 56 | 264 | 4.0 | 7.0 | 0.00 | 0.06 | 0.00 | 79 | 1002.7 |
| 20260509074953 | 56 | 175 | 3.0 | 7.0 | 0.00 | 0.06 | 0.00 | 78 | 1002.6 |
| 20260509074451 | 56 | 201 | 2.0 | 7.0 | 0.00 | 0.06 | 0.00 | 78 | 1002.8 |
| 20260509073951 | 56 | 264 | 3.0 | 6.0 | 0.00 | 0.06 | 0.00 | 78 | 1002.8 |
| 20260509073449 | 56 | 251 | 4.0 | 8.0 | 0.00 | 0.06 | 0.00 | 77 | 1002.8 |
| 20260509072949 | 56 | 196 | 3.0 | 9.0 | 0.00 | 0.06 | 0.00 | 77 | 1002.9 |
| 20260509072448 | 56 | 248 | 3.0 | 9.0 | 0.00 | 0.06 | 0.00 | 77 | 1003.0 |
| 20260509071952 | 56 | 260 | 4.0 | 8.0 | 0.00 | 0.06 | 0.00 | 77 | 1003.0 |
| 20260509071447 | 56 | 272 | 2.0 | 7.0 | 0.00 | 0.06 | 0.00 | 76 | 1003.1 |
| 20260509070945 | 56 | 265 | 3.0 | 7.0 | 0.00 | 0.06 | 0.00 | 76 | 1003.3 |
| 20260509070730 | 56 | 271 | 4.0 | 7.0 | 0.00 | 0.06 | 0.00 | 77 | 1003.3 |
| 20260509065944 | 57 | 219 | 2.0 | 7.0 | 0.00 | 0.06 | 0.00 | 76 | 1003.3 |
| 20260509065445 | 57 | 323 | 2.0 | 7.0 | 0.00 | 0.06 | 0.00 | 76 | 1003.4 |
| 20260509065208 | 57 | 285 | 1.0 | 8.0 | 0.00 | 0.06 | 0.00 | 76 | 1003.5 |
| 20260509064438 | 57 | 108 | 2.0 | 8.0 | 0.00 | 0.06 | 0.00 | 76 | 1003.4 |
| 20260509063935 | 57 | 243 | 4.0 | 7.0 | 0.00 | 0.06 | 0.00 | 76 | 1003.5 |
| 20260509063435 | 57 | 181 | 3.0 | 8.0 | 0.00 | 0.06 | 0.00 | 76 | 1003.5 |
| 20260509062934 | 57 | 212 | 2.0 | 10.0 | 0.00 | 0.06 | 0.00 | 76 | 1003.5 |
| 20260509062434 | 57 | 237 | 1.0 | 10.0 | 0.00 | 0.06 | 0.00 | 76 | 1003.6 |
| 20260509061932 | 57 | 220 | 3.0 | 9.0 | 0.00 | 0.06 | 0.00 | 76 | 1003.6 |
| 20260509061431 | 57 | 293 | 3.0 | 10.0 | 0.00 | 0.06 | 0.00 | 76 | 1003.8 |
| 20260509060932 | 58 | 262 | 3.0 | 10.0 | 0.00 | 0.06 | 0.00 | 76 | 1003.9 |
| 20260509060428 | 58 | 284 | 3.0 | 10.0 | 0.00 | 0.06 | 0.00 | 75 | 1004.0 |
| 20260509055928 | 58 | 257 | 3.0 | 10.0 | 0.00 | 0.06 | 0.00 | 75 | 1004.1 |
| 20260509055426 | 58 | 253 | 2.0 | 10.0 | 0.00 | 0.06 | 0.00 | 75 | 1004.1 |
| 20260509054928 | 58 | 277 | 3.0 | 8.0 | 0.00 | 0.06 | 0.00 | 74 | 1004.1 |
| 20260509054647 | 58 | 244 | 5.0 | 8.0 | 0.00 | 0.06 | 0.00 | 75 | 1004.1 |
| 20260509053927 | 58 | 192 | 2.0 | 7.0 | 0.00 | 0.06 | 0.00 | 74 | 1004.1 |
| 20260509053649 | 58 | 250 | 3.0 | 7.0 | 0.00 | 0.06 | 0.00 | 74 | 1004.1 |
| 20260509052924 | 58 | 237 | 4.0 | 7.0 | 0.00 | 0.06 | 0.00 | 73 | 1004.1 |
| 20260509052423 | 58 | 219 | 2.0 | 9.0 | 0.00 | 0.06 | 0.00 | 72 | 1004.1 |
| 20260509051923 | 58 | 288 | 4.0 | 9.0 | 0.00 | 0.06 | 0.00 | 73 | 1003.9 |
| 20260509051422 | 58 | 192 | 3.0 | 8.0 | 0.00 | 0.06 | 0.00 | 72 | 1003.9 |
| 20260509050922 | 58 | 241 | 3.0 | 8.0 | 0.00 | 0.06 | 0.00 | 71 | 1004.1 |
| 20260509050649 | 58 | 208 | 4.0 | 8.0 | 0.00 | 0.06 | 0.00 | 71 | 1004.1 |
| 20260509045921 | 58 | 199 | 5.0 | 10.0 | 0.00 | 0.06 | 0.06 | 70 | 1004.0 |
| 20260509045418 | 58 | 219 | 4.0 | 10.0 | 0.00 | 0.06 | 0.06 | 69 | 1004.0 |
| 20260509045142 | 59 | 203 | 5.0 | 8.0 | 0.00 | 0.06 | 0.06 | 69 | 1004.0 |
| 20260509044418 | 59 | 161 | 4.0 | 8.0 | 0.00 | 0.06 | 0.06 | 68 | 1004.2 |
| 20260509043918 | 59 | 158 | 2.0 | 7.0 | 0.00 | 0.06 | 0.06 | 67 | 1004.3 |
| 20260509043418 | 59 | 237 | 4.0 | 8.0 | 0.00 | 0.06 | 0.06 | 67 | 1004.3 |
| 20260509042916 | 59 | 250 | 4.0 | 8.0 | 0.00 | 0.06 | 0.06 | 66 | 1004.2 |
| 20260509042415 | 59 | 225 | 4.0 | 9.0 | 0.00 | 0.06 | 0.06 | 66 | 1004.1 |
| 20260509041914 | 59 | 230 | 6.0 | 10.0 | 0.00 | 0.06 | 0.06 | 66 | 1004.1 |
| 20260509041414 | 59 | 241 | 4.0 | 10.0 | 0.00 | 0.08 | 0.06 | 66 | 1004.1 |
| 20260509041359 | 59 | 182 | 5.0 | 10.0 | 0.00 | 0.08 | 0.06 | 66 | 1004.1 |
| 20260509040412 | 59 | 226 | 4.0 | 10.0 | 0.00 | 0.08 | 0.06 | 66 | 1004.1 |
| 20260509035911 | 58 | 232 | 4.0 | 6.0 | 0.00 | 0.08 | 0.06 | 66 | 1004.2 |
| 20260509035411 | 58 | 187 | 3.0 | 6.0 | 0.00 | 0.08 | 0.06 | 65 | 1004.3 |
| 20260509034910 | 58 | 187 | 2.0 | 6.0 | 0.00 | 0.08 | 0.06 | 65 | 1004.4 |
| 20260509034408 | 58 | 227 | 3.0 | 9.0 | 0.00 | 0.08 | 0.06 | 64 | 1004.4 |
| 20260509033908 | 58 | 191 | 3.0 | 9.0 | 0.00 | 0.08 | 0.06 | 64 | 1004.3 |
| 20260509033625 | 58 | 253 | 2.0 | 8.0 | 0.00 | 0.08 | 0.06 | 63 | 1004.3 |
| 20260509032908 | 58 | 222 | 3.0 | 9.0 | 0.00 | 0.08 | 0.06 | 64 | 1004.4 |
| 20260509032409 | 58 | 216 | 2.0 | 9.0 | 0.00 | 0.08 | 0.06 | 64 | 1004.4 |
| 20260509031906 | 58 | 182 | 3.0 | 8.0 | 0.00 | 0.08 | 0.06 | 64 | 1004.4 |
| 20260509031404 | 57 | 195 | 4.0 | 7.0 | 0.00 | 0.08 | 0.06 | 65 | 1004.4 |
| 20260509030903 | 56 | 226 | 3.0 | 6.0 | 0.00 | 0.08 | 0.06 | 66 | 1004.5 |
| 20260509030628 | 56 | 157 | 3.0 | 6.0 | 0.00 | 0.08 | 0.06 | 66 | 1004.5 |
| 20260509025904 | 56 | 271 | 0.0 | 4.0 | 0.00 | 0.08 | 0.06 | 65 | 1004.5 |
| 20260509025354 | 56 | 133 | 2.0 | 5.0 | 0.00 | 0.08 | 0.06 | 66 | 1004.5 |
| 20260509024850 | 56 | 153 | 3.0 | 5.0 | 0.00 | 0.08 | 0.06 | 64 | 1004.6 |
| 20260509024351 | 56 | 187 | 2.0 | 4.0 | 0.00 | 0.08 | 0.06 | 65 | 1004.7 |
| 20260509023851 | 56 | 178 | 3.0 | 4.0 | 0.00 | 0.08 | 0.06 | 64 | 1004.9 |
| 20260509023348 | 56 | 227 | 2.0 | 4.0 | 0.00 | 0.08 | 0.06 | 64 | 1004.9 |
| 20260509022849 | 56 | 174 | 2.0 | 4.0 | 0.00 | 0.08 | 0.06 | 64 | 1004.9 |
| 20260509022348 | 56 | 115 | 1.0 | 4.0 | 0.00 | 0.08 | 0.06 | 63 | 1005.0 |
| 20260509022116 | 56 | 23 | 2.0 | 4.0 | 0.00 | 0.08 | 0.06 | 63 | 1005.0 |
| 20260509021346 | 56 | 158 | 2.0 | 4.0 | 0.00 | 0.08 | 0.06 | 63 | 1005.1 |
| 20260509020842 | 56 | 118 | 1.0 | 4.0 | 0.00 | 0.08 | 0.06 | 63 | 1005.0 |
| 20260509020339 | 56 | 184 | 2.0 | 4.0 | 0.00 | 0.08 | 0.06 | 63 | 1005.0 |
| 20260509015844 | 56 | 154 | 1.0 | 4.0 | 0.00 | 0.08 | 0.06 | 63 | 1005.0 |
| 20260509015336 | 56 | 175 | 0.0 | 6.0 | 0.00 | 0.08 | 0.06 | 63 | 1004.9 |
| 20260509014836 | 56 | 120 | 2.0 | 6.0 | 0.00 | 0.08 | 0.06 | 62 | 1005.0 |
| 20260509014335 | 56 | 109 | 2.0 | 6.0 | 0.00 | 0.08 | 0.06 | 62 | 1004.9 |
| 20260509013839 | 56 | 85 | 4.0 | 6.0 | 0.00 | 0.08 | 0.06 | 62 | 1004.9 |
| 20260509013334 | 56 | 144 | 4.0 | 8.0 | 0.00 | 0.08 | 0.06 | 62 | 1004.9 |
| 20260509012834 | 56 | 174 | 4.0 | 8.0 | 0.00 | 0.08 | 0.06 | 61 | 1004.9 |
| 20260509012554 | 56 | 147 | 4.0 | 6.0 | 0.00 | 0.08 | 0.06 | 61 | 1004.9 |
| 20260509011832 | 56 | 174 | 3.0 | 6.0 | 0.00 | 0.08 | 0.06 | 59 | 1004.7 |
| 20260509011329 | 56 | 101 | 2.0 | 5.0 | 0.00 | 0.08 | 0.06 | 58 | 1004.7 |
| 20260509010829 | 56 | 142 | 3.0 | 5.0 | 0.00 | 0.08 | 0.06 | 59 | 1004.9 |
| 20260509010328 | 56 | 217 | 2.0 | 5.0 | 0.00 | 0.08 | 0.06 | 57 | 1004.9 |
| 20260509005829 | 56 | 108 | 2.0 | 6.0 | 0.00 | 0.08 | 0.06 | 56 | 1004.7 |
| 20260509005552 | 56 | 106 | 4.0 | 6.0 | 0.00 | 0.08 | 0.06 | 56 | 1004.9 |
| 20260509004827 | 56 | 157 | 0.0 | 6.0 | 0.00 | 0.08 | 0.06 | 55 | 1004.9 |
| 20260509004317 | 57 | 171 | 1.0 | 9.0 | 0.00 | 0.08 | 0.06 | 54 | 1004.7 |
| 20260509003816 | 57 | 111 | 4.0 | 9.0 | 0.00 | 0.08 | 0.06 | 53 | 1004.9 |
| 20260509003755 | 57 | 194 | 5.0 | 9.0 | 0.00 | 0.08 | 0.06 | 53 | 1004.9 |
| 20260509002814 | 57 | 225 | 4.0 | 8.0 | 0.00 | 0.08 | 0.06 | 52 | 1004.9 |
| 20260509002314 | 57 | 161 | 3.0 | 9.0 | 0.00 | 0.08 | 0.06 | 52 | 1005.0 |
| 20260509001812 | 57 | 64 | 2.0 | 9.0 | 0.00 | 0.08 | 0.06 | 52 | 1005.0 |
| 20260509001312 | 57 | 184 | 0.0 | 8.0 | 0.00 | 0.08 | 0.06 | 51 | 1005.1 |
| 20260509000813 | 57 | 112 | 4.0 | 8.0 | 0.00 | 0.08 | 0.06 | 50 | 1005.1 |
| 20260509000311 | 57 | 74 | 2.0 | 6.0 | 0.00 | 0.08 | 0.06 | 50 | 1005.0 |
| 20260508235808 | 57 | 165 | 1.0 | 8.0 | 0.00 | 0.08 | 0.06 | 49 | 1005.1 |
| 20260508235307 | 57 | 195 | 3.0 | 8.0 | 0.00 | 0.08 | 0.06 | 49 | 1005.1 |
| 20260508234810 | 57 | 180 | 2.0 | 8.0 | 0.00 | 0.08 | 0.06 | 48 | 1005.2 |
| 20260508234307 | 58 | 175 | 5.0 | 7.0 | 0.00 | 0.08 | 0.06 | 48 | 1005.2 |
| 20260508233804 | 58 | 113 | 3.0 | 8.0 | 0.00 | 0.08 | 0.06 | 47 | 1005.2 |
| 20260508233518 | 58 | 105 | 2.0 | 8.0 | 0.00 | 0.08 | 0.06 | 47 | 1005.2 |
| 20260508233029 | 58 | 71 | 1.0 | 10.0 | 0.00 | 0.08 | 0.06 | 49 | 1005.2 |
| 20260508232256 | 58 | 115 | 2.0 | 10.0 | 0.00 | 0.08 | 0.06 | 50 | 1005.2 |
| 20260508232016 | 58 | 149 | 4.0 | 10.0 | 0.00 | 0.08 | 0.06 | 50 | 1005.4 |
| 20260508231254 | 59 | 97 | 5.0 | 9.0 | 0.00 | 0.08 | 0.06 | 49 | 1005.3 |
| 20260508230755 | 59 | 153 | 3.0 | 9.0 | 0.00 | 0.08 | 0.06 | 48 | 1005.3 |
| 20260508230525 | 59 | 142 | 4.0 | 9.0 | 0.00 | 0.08 | 0.06 | 48 | 1005.4 |
| 20260508225752 | 58 | 144 | 4.0 | 9.0 | 0.00 | 0.08 | 0.06 | 47 | 1005.4 |
| 20260508225250 | 59 | 123 | 5.0 | 10.0 | 0.00 | 0.08 | 0.06 | 45 | 1005.4 |
| 20260508224753 | 59 | 112 | 2.0 | 10.0 | 0.00 | 0.08 | 0.06 | 42 | 1005.4 |
| 20260508224248 | 59 | 102 | 4.0 | 10.0 | 0.00 | 0.08 | 0.06 | 41 | 1005.4 |
| 20260508223749 | 59 | 74 | 2.0 | 10.0 | 0.00 | 0.08 | 0.06 | 42 | 1005.4 |
| 20260508223247 | 59 | 82 | 4.0 | 10.0 | 0.00 | 0.08 | 0.06 | 41 | 1005.4 |
| 20260508222746 | 59 | 156 | 3.0 | 10.0 | 0.00 | 0.08 | 0.06 | 41 | 1005.5 |
| 20260508222245 | 59 | 61 | 3.0 | 8.0 | 0.00 | 0.08 | 0.06 | 44 | 1005.5 |
| 20260508221745 | 59 | 142 | 4.0 | 9.0 | 0.00 | 0.08 | 0.06 | 45 | 1005.5 |
| 20260508221508 | 59 | 184 | 1.0 | 9.0 | 0.00 | 0.08 | 0.06 | 47 | 1005.5 |
| 20260508220747 | 59 | 102 | 4.0 | 10.0 | 0.00 | 0.08 | 0.06 | 44 | 1005.5 |
| 20260508220241 | 59 | 106 | 4.0 | 10.0 | 0.00 | 0.08 | 0.06 | 44 | 1005.5 |
| 20260508215752 | 59 | 184 | 5.0 | 11.0 | 0.00 | 0.08 | 0.06 | 43 | 1005.6 |
| 20260508215514 | 59 | 140 | 4.0 | 13.0 | 0.00 | 0.08 | 0.06 | 44 | 1005.6 |
| 20260508214740 | 59 | 108 | 3.0 | 13.0 | 0.00 | 0.08 | 0.06 | 44 | 1005.7 |
| 20260508214239 | 59 | 165 | 5.0 | 13.0 | 0.00 | 0.08 | 0.06 | 42 | 1005.7 |
| 20260508213739 | 59 | 170 | 7.0 | 11.0 | 0.00 | 0.08 | 0.06 | 44 | 1005.6 |
| 20260508213239 | 59 | 66 | 5.0 | 11.0 | 0.00 | 0.11 | 0.06 | 44 | 1005.7 |
| 20260508212739 | 59 | 139 | 6.0 | 11.0 | 0.00 | 0.14 | 0.06 | 41 | 1005.8 |
| 20260508212504 | 59 | 98 | 4.0 | 10.0 | 0.00 | 0.33 | 0.06 | 44 | 1005.8 |
| 20260508211739 | 59 | 101 | 4.0 | 10.0 | 0.00 | 0.34 | 0.06 | 44 | 1005.8 |
| 20260508211236 | 59 | 136 | 3.0 | 11.0 | 0.00 | 0.34 | 0.06 | 51 | 1005.8 |
| 20260508210735 | 60 | 127 | 5.0 | 11.0 | 0.00 | 0.34 | 0.06 | 50 | 1005.8 |
| 20260508210233 | 60 | 140 | 6.0 | 11.0 | 0.00 | 0.34 | 0.06 | 51 | 1005.8 |
| 20260508210000 | 60 | 102 | 7.0 | 11.0 | 0.00 | 0.34 | 0.06 | 50 | 1005.8 |
| 20260508205232 | 60 | 130 | 5.0 | 11.0 | 0.00 | 0.34 | 0.06 | 48 | 1005.9 |
| 20260508204731 | 60 | 153 | 6.0 | 11.0 | 0.00 | 0.34 | 0.06 | 48 | 1005.8 |
| 20260508204230 | 61 | 165 | 5.0 | 10.0 | 0.00 | 0.34 | 0.06 | 46 | 1005.9 |
| 20260508204005 | 61 | 168 | 6.0 | 10.0 | 0.00 | 0.34 | 0.06 | 44 | 1006.0 |
| 20260508203229 | 61 | 188 | 6.0 | 10.0 | 0.00 | 0.34 | 0.06 | 45 | 1006.1 |
| 20260508202729 | 62 | 161 | 6.0 | 10.0 | 0.00 | 0.34 | 0.06 | 43 | 1006.1 |
| 20260508202227 | 61 | 130 | 5.0 | 10.0 | 0.00 | 0.34 | 0.06 | 43 | 1006.2 |
| 20260508201730 | 61 | 77 | 0.0 | 10.0 | 0.00 | 0.34 | 0.06 | 42 | 1006.3 |
| 20260508201226 | 61 | 67 | 4.0 | 11.0 | 0.00 | 0.34 | 0.06 | 42 | 1006.4 |
| 20260508200726 | 62 | 105 | 7.0 | 11.0 | 0.00 | 0.34 | 0.06 | 39 | 1006.5 |
| 20260508200225 | 62 | 112 | 3.0 | 10.0 | 0.00 | 0.34 | 0.06 | 38 | 1006.7 |
| 20260508195725 | 61 | 16 | 2.0 | 11.0 | 0.00 | 0.34 | 0.06 | 40 | 1006.8 |
| 20260508195221 | 60 | 127 | 4.0 | 11.0 | 0.00 | 0.34 | 0.06 | 41 | 1006.8 |
| 20260508194723 | 60 | 118 | 6.0 | 10.0 | 0.00 | 0.34 | 0.06 | 40 | 1006.8 |
| 20260508194220 | 60 | 115 | 3.0 | 9.0 | 0.00 | 0.34 | 0.06 | 41 | 1006.8 |
| 20260508193720 | 60 | 140 | 1.0 | 10.0 | 0.00 | 0.34 | 0.06 | 42 | 1006.9 |
| 20260508193208 | 60 | 163 | 5.0 | 10.0 | 0.00 | 0.34 | 0.06 | 39 | 1006.9 |
| 20260508192708 | 61 | 154 | 0.0 | 13.0 | 0.00 | 0.34 | 0.06 | 40 | 1007.0 |
| 20260508192206 | 61 | 350 | 3.0 | 13.0 | 0.00 | 0.34 | 0.06 | 37 | 1007.0 |
| 20260508191707 | 61 | 18 | 6.0 | 13.0 | 0.01 | 0.34 | 0.06 | 37 | 1007.0 |
| 20260508191205 | 61 | 120 | 8.0 | 13.0 | 0.02 | 0.34 | 0.06 | 36 | 1007.1 |
| 20260508190704 | 61 | 80 | 4.0 | 11.0 | 0.02 | 0.34 | 0.06 | 38 | 1007.2 |
| 20260508190207 | 62 | 111 | 5.0 | 11.0 | 0.02 | 0.34 | 0.06 | 41 | 1007.2 |
| 20260508185702 | 62 | 25 | 4.0 | 11.0 | 0.02 | 0.34 | 0.06 | 39 | 1007.3 |
| 20260508185200 | 62 | 129 | 5.0 | 11.0 | 0.02 | 0.34 | 0.06 | 34 | 1007.4 |
| 20260508184700 | 62 | 175 | 1.0 | 11.0 | 0.02 | 0.34 | 0.06 | 35 | 1007.4 |
| 20260508184153 | 62 | 91 | 8.0 | 11.0 | 0.02 | 0.34 | 0.06 | 35 | 1007.4 |
| 20260508183654 | 62 | 43 | 0.0 | 11.0 | 0.02 | 0.34 | 0.06 | 34 | 1007.6 |
| 20260508183134 | 62 | 185 | 3.0 | 9.0 | 0.02 | 0.34 | 0.06 | 35 | 1007.6 |
| 20260508182634 | 62 | 185 | 3.0 | 10.0 | 0.02 | 0.34 | 0.06 | 36 | 1007.7 |
| 20260508182357 | 62 | 161 | 1.0 | 10.0 | 0.02 | 0.34 | 0.06 | 34 | 1007.7 |
| 20260508181850 | 62 | 68 | 3.0 | 11.0 | 0.01 | 0.33 | 0.06 | 32 | 1007.7 |
| 20260508181131 | 61 | 130 | 5.0 | 11.0 | 0.00 | 0.32 | 0.04 | 33 | 1007.8 |
| 20260508180632 | 61 | 108 | 4.0 | 10.0 | 0.00 | 0.32 | 0.04 | 34 | 1007.8 |
| 20260508180130 | 61 | 202 | 6.0 | 11.0 | 0.00 | 0.32 | 0.04 | 35 | 1007.9 |
| 20260508175629 | 61 | 125 | 7.0 | 12.0 | 0.00 | 0.32 | 0.04 | 37 | 1008.0 |
| 20260508175128 | 60 | 149 | 6.0 | 12.0 | 0.00 | 0.32 | 0.04 | 37 | 1008.1 |
| 20260508174626 | 60 | 194 | 5.0 | 11.0 | 0.00 | 0.32 | 0.04 | 39 | 1008.2 |
| 20260508174128 | 61 | 111 | 6.0 | 11.0 | 0.00 | 0.32 | 0.04 | 36 | 1008.3 |
| 20260508173628 | 62 | 68 | 3.0 | 11.0 | 0.00 | 0.32 | 0.04 | 35 | 1008.3 |
| 20260508173126 | 61 | 74 | 5.0 | 11.0 | 0.00 | 0.32 | 0.04 | 33 | 1008.4 |
| 20260508172843 | 61 | 130 | 4.0 | 10.0 | 0.00 | 0.32 | 0.04 | 38 | 1008.5 |
| 20260508172120 | 60 | 56 | 6.0 | 10.0 | 0.00 | 0.32 | 0.04 | 36 | 1008.6 |
| 20260508171622 | 60 | 104 | 4.0 | 9.0 | 0.00 | 0.32 | 0.04 | 38 | 1008.6 |
| 20260508171353 | 60 | 136 | 6.0 | 10.0 | 0.00 | 0.32 | 0.04 | 40 | 1008.8 |
| 20260508170849 | 60 | 157 | 6.0 | 10.0 | 0.00 | 0.32 | 0.04 | 41 | 1008.8 |
| 20260508170119 | 61 | 70 | 4.0 | 10.0 | 0.00 | 0.32 | 0.04 | 43 | 1008.8 |
| 20260508165617 | 61 | 104 | 3.0 | 10.0 | 0.01 | 0.32 | 0.04 | 41 | 1008.8 |
| 20260508165114 | 61 | 146 | 7.0 | 10.0 | 0.01 | 0.32 | 0.04 | 39 | 1008.9 |
| 20260508164612 | 61 | 174 | 0.0 | 9.0 | 0.01 | 0.32 | 0.04 | 42 | 1009.2 |
| 20260508164113 | 61 | 129 | 2.0 | 7.0 | 0.01 | 0.32 | 0.04 | 43 | 1009.3 |
| 20260508163608 | 60 | 119 | 1.0 | 7.0 | 0.01 | 0.32 | 0.04 | 44 | 1009.3 |
| 20260508163100 | 60 | 66 | 2.0 | 8.0 | 0.01 | 0.32 | 0.04 | 46 | 1009.5 |
| 20260508162559 | 60 | 88 | 3.0 | 9.0 | 0.01 | 0.32 | 0.04 | 47 | 1009.4 |
| 20260508162058 | 60 | 115 | 3.0 | 9.0 | 0.01 | 0.32 | 0.04 | 47 | 1009.4 |
| 20260508162035 | 60 | 45 | 5.0 | 8.0 | 0.01 | 0.32 | 0.04 | 49 | 1009.4 |
| 20260508161055 | 60 | 85 | 2.0 | 9.0 | 0.01 | 0.32 | 0.04 | 48 | 1009.4 |
| 20260508160554 | 60 | 60 | 3.0 | 9.0 | 0.01 | 0.32 | 0.04 | 47 | 1009.4 |
| 20260508160318 | 60 | 50 | 4.0 | 9.0 | 0.01 | 0.32 | 0.04 | 48 | 1009.5 |
| 20260508155554 | 60 | 43 | 2.0 | 7.0 | 0.00 | 0.31 | 0.03 | 51 | 1009.5 |
| 20260508155050 | 60 | 36 | 4.0 | 9.0 | 0.00 | 0.31 | 0.03 | 48 | 1009.6 |
| 20260508154550 | 60 | 84 | 3.0 | 9.0 | 0.00 | 0.31 | 0.03 | 52 | 1009.7 |
| 20260508154304 | 60 | 87 | 1.0 | 8.0 | 0.00 | 0.31 | 0.03 | 57 | 1009.7 |
| 20260508153545 | 60 | 142 | 1.0 | 8.0 | 0.00 | 0.31 | 0.03 | 56 | 1009.7 |
| 20260508153043 | 59 | 127 | 1.0 | 5.0 | 0.00 | 0.31 | 0.03 | 53 | 1009.7 |
| 20260508152543 | 59 | 104 | 1.0 | 6.0 | 0.00 | 0.31 | 0.03 | 49 | 1009.7 |
| 20260508152043 | 59 | 168 | 3.0 | 6.0 | 0.00 | 0.31 | 0.03 | 53 | 1009.8 |
| 20260508151542 | 59 | 82 | 2.0 | 5.0 | 0.00 | 0.31 | 0.03 | 55 | 1009.8 |
| 20260508151038 | 58 | 135 | 3.0 | 5.0 | 0.00 | 0.31 | 0.03 | 55 | 1009.9 |
| 20260508150537 | 58 | 59 | 0.0 | 5.0 | 0.00 | 0.31 | 0.03 | 59 | 1009.9 |
| 20260508150028 | 58 | 219 | 0.0 | 5.0 | 0.00 | 0.31 | 0.03 | 58 | 1009.9 |
| 20260508145519 | 57 | 133 | 0.0 | 5.0 | 0.00 | 0.31 | 0.03 | 61 | 1009.9 |
| 20260508145010 | 57 | 180 | 0.0 | 6.0 | 0.00 | 0.31 | 0.03 | 62 | 1009.9 |
| 20260508144511 | 56 | 171 | 3.0 | 6.0 | 0.00 | 0.31 | 0.03 | 62 | 1010.0 |
| 20260508144232 | 56 | 149 | 0.0 | 6.0 | 0.00 | 0.31 | 0.03 | 63 | 1010.1 |
| 20260508143508 | 55 | 172 | 2.0 | 6.0 | 0.00 | 0.31 | 0.03 | 67 | 1010.1 |
| 20260508143008 | 55 | 142 | 2.0 | 6.0 | 0.00 | 0.31 | 0.03 | 68 | 1010.1 |
| 20260508142506 | 55 | 97 | 3.0 | 5.0 | 0.00 | 0.31 | 0.03 | 71 | 1010.0 |
| 20260508142006 | 54 | 239 | 3.0 | 5.0 | 0.00 | 0.33 | 0.03 | 71 | 1010.1 |
| 20260508141505 | 54 | 160 | 1.0 | 4.0 | 0.00 | 0.33 | 0.03 | 71 | 1010.3 |
| 20260508141003 | 55 | 85 | 3.0 | 4.0 | 0.00 | 0.33 | 0.03 | 71 | 1010.2 |
| 20260508140506 | 54 | 258 | 1.0 | 6.0 | 0.00 | 0.33 | 0.03 | 72 | 1010.1 |
| 20260508140002 | 53 | 0 | 2.0 | 6.0 | 0.00 | 0.33 | 0.03 | 73 | 1010.0 |
| 20260508135501 | 53 | 85 | 2.0 | 7.0 | 0.00 | 0.33 | 0.03 | 73 | 1010.1 |
| 20260508135001 | 53 | 84 | 4.0 | 7.0 | 0.00 | 0.33 | 0.03 | 73 | 1010.1 |
| 20260508134720 | 53 | 39 | 4.0 | 6.0 | 0.00 | 0.33 | 0.03 | 74 | 1010.1 |
| 20260508134000 | 52 | 140 | 3.0 | 7.0 | 0.00 | 0.33 | 0.03 | 76 | 1010.0 |
| 20260508133720 | 52 | 98 | 4.0 | 7.0 | 0.00 | 0.33 | 0.03 | 77 | 1010.2 |
| 20260508132958 | 52 | 105 | 2.0 | 5.0 | 0.00 | 0.33 | 0.03 | 82 | 1010.2 |
| 20260508132451 | 51 | 109 | 1.0 | 5.0 | 0.00 | 0.33 | 0.03 | 83 | 1010.3 |
| 20260508131952 | 51 | 208 | 2.0 | 4.0 | 0.00 | 0.33 | 0.03 | 85 | 1010.3 |
| 20260508131708 | 50 | 338 | 2.0 | 4.0 | 0.00 | 0.33 | 0.03 | 89 | 1010.1 |
| 20260508131206 | 50 | 139 | 1.0 | 2.0 | 0.00 | 0.33 | 0.03 | 90 | 1010.3 |
| 20260508130439 | 50 | 195 | 0.0 | 0.0 | 0.00 | 0.33 | 0.03 | 90 | 1010.4 |
| 20260508125916 | 49 | 195 | 0.0 | 0.0 | 0.00 | 0.33 | 0.03 | 90 | 1010.4 |
| 20260508125416 | 49 | 195 | 0.0 | 0.0 | 0.00 | 0.33 | 0.03 | 90 | 1010.4 |
| 20260508124909 | 49 | 195 | 0.0 | 0.0 | 0.00 | 0.33 | 0.03 | 91 | 1010.4 |
| 20260508124400 | 48 | 195 | 0.0 | 0.0 | 0.00 | 0.33 | 0.03 | 92 | 1010.4 |